sat.trackr.live / text

‹ back to catalog

STARLINK-3691

NORAD 51960 · 2022-025E

PAYLOAD ACTIVE UNKNOWN

§ Identity

Operator
Country
US
Launch date
2022-03-09
Launch site
AFETR
Launch vehicle
Mass (kg)
RCS (m²)

Purposes: comms

External: N2YO · Heavens-Above · Gunter

§ Orbital elements

Epoch: 2026-09-19T13:48:20.634912Z

Period
94.01 min
Inclination
53.1609°
Eccentricity
0.0001187
Mean motion
15.31683032 rev/d
Perigee alt
470.0 km
Apogee alt
471.6 km
Semi-major
6,848.9 km
B*
-9.2674e-5
RAAN
214.3727°
Arg perigee
94.9129°
Mean anomaly
265.2008°
Rev number
25,054

§ Raw data

STARLINK-36911 51960U 22025E   26262.57523883 -.00003238  00000+0 -92674-4 0  99902 51960  53.1609 214.3727 0001187  94.9129 265.2008 15.31683032250545

JSON: /api/v1/satellites/51960 · /tle

For live sub-satellite position, see the globe view (requires WebGL).

§ Visibility from observer

Set your observer location to see the next 7 days of passes ≥ 10°. The values pass through the URL so the page stays shareable.

No JS? Fill the form by hand. The geolocation button needs JavaScript.